Location: El Bakhil
(32.7726°N, 5.5387°W)
Time: 04:53:21
(UTC+00:00)

N. Korean satellite - Visible Passes

Search period start: 14 May 2021 00:00
Search period end: 24 May 2021 00:00
Orbit: 450 x 501 km, 97.2° (Epoch: 13 May)

Date Brightness Start Highest point End Pass type
(mag) Time Alt. Az. Time Alt. Az. Time Alt. Az.
16 May 9.4 04:54:53 10° NE 04:57:11 17° E 04:59:30 10° SE visible
20 May 9.9 04:41:08 10° E 04:41:50 10° E 04:42:32 10° ESE visible
23 May 9.4 04:51:34 10° NE 04:53:42 16° E 04:55:51 10° SE visible
